Regional Weather Roundup
Issued by NWS

Home | Current Version | Previous Version | Text Only | Print | Product List | Glossary On
Versions: 1 2 3 4 5 6 7 8 9 10 11 12 13 14 15 16 17 18 19 20 21 22 23 24 25 26 27 28 29 30 31 32 33 34 35 36 37 38 39 40 41 42 43 44 45 46 47 48 49 50
000
ASUS43 KMKX 042100
RWRWI

WISCONSIN REGIONAL WEATHER ROUNDUP
NATIONAL WEATHER SERVICE MILWAUKEE/SULLIVAN WI
400 PM CDT TUE AUG 04 2015

NOTE: "FAIR" INDICATES FEW OR NO CLOUDS BELOW 12,000 FEET WITH NO
SIGNIFICANT WEATHER AND/OR OBSTRUCTIONS TO VISIBILITY.

WIZ001-002-006>008-014>016-023>028-042200-
NORTHWEST WISCONSIN

CITY           SKY/WX    TMP DP  RH WIND       PRES   REMARKS
SUPERIOR ARPT  MOSUNNY   73  54  52 E9        29.96F
ASHLAND        PTSUNNY   71  56  58 NE12      29.98F
HAYWARD        PTSUNNY   74  52  46 N9        29.97F
SIREN          MOSUNNY   77  50  38 N8        29.97S
CUMBERLAND     PTSUNNY   72  52  49 NW7       29.98S
RICE LAKE      CLOUDY    76  53  44 NW6       29.98F
CHETEK         CLOUDY    74  55  50 CALM      29.97F
LADYSMITH      CLOUDY    73  53  50 N6        29.99F
EAU CLAIRE     NOT AVBL
MENOMONIE      MOSUNNY   79  48  33 W9G16     29.98S
NEW RICHMOND   MOSUNNY   79  48  33 W10       29.98S
OSCEOLA        PTSUNNY   79  50  36 NW10G16   29.99F
$$

WIZ003>005-009-010-017-018-042200-
NORTH CENTRAL WISCONSIN

CITY           SKY/WX    TMP DP  RH WIND       PRES   REMARKS
MANITOWISH WTR PTSUNNY   67  52  57 N8        29.99F
ARBOR VITAE    MOSUNNY   72  55  54 N10       29.99F
WOODRUFF       MOSUNNY   72  55  54 N10       29.99F
RHINELANDER    PTSUNNY   71  51  49 VRB7      29.99S
EAGLE RIVER    PTSUNNY   69  47  46 NW8       29.98F
LAND O LAKES   CLOUDY    67  48  49 NW9       30.00S
PHILLIPS       PTSUNNY   71  54  54 NW3       29.98S
TOMAHAWK       PTSUNNY   69  50  50 NW7       29.98F
MEDFORD        PTSUNNY   71  52  50 NW9       29.98F
MERRILL        NOT AVBL
$$

WIZ029-030-035-036-043>047-042200-
CENTRAL WISCONSIN

CITY           SKY/WX    TMP DP  RH WIND       PRES   REMARKS
WAUSAU         CLOUDY    74  49  41 W13       29.96S
MOSINEE        CLOUDY    73  52  46 NW12      29.99S
MARSHFIELD     PTSUNNY   78  51  38 NW13G18   29.98F
STEVENS POINT  CLOUDY    73  52  47 NW10      29.98S
WAUPACA        MOSUNNY   79  51  37 W10       29.96S
WAUTOMA        NOT AVBL
WISC RAPIDS    CLOUDY    77  49  37 NW13      29.99S
CAMP DOUGLAS   NOT AVBL
$$

WIZ011>013-019>022-031-037>040-048>050-042200-
NORTHEAST WISCONSIN

CITY           SKY/WX    TMP DP  RH WIND       PRES   REMARKS
ANTIGO         CLOUDY    71  49  46 N13       29.97F
SHAWANO        CLOUDY    77  51  39 NW7       29.95S
OCONTO         MOSUNNY   76  51  41 NW7G17    29.92F
STURGEON BAY   MOSUNNY   72  54  53 W5        29.96S
GREEN BAY      MOSUNNY   78  53  41 W15       29.94S
MANITOWOC      NOT AVBL
APPLETON       PTSUNNY   73  46  38 NW10      29.96S
CLINTONVILLE   PTSUNNY   77  45  31 NW12      29.94F
OSHKOSH        MOSUNNY   77  52  41 W14G22    29.95F
$$

WIZ032>034-041-042-053>061-042200-
SOUTHWEST WISCONSIN

CITY           SKY/WX    TMP DP  RH WIND       PRES   REMARKS
LA CROSSE      SUNNY     81  51  35 NW10      29.97F HX  80
SPARTA         MOSUNNY   80  47  31 NW7       29.99S
VIROQUA        MOSUNNY   76  54  45 W6        30.01S
BOSCOBEL       PTSUNNY   83  52  34 NW7       29.98F HX  82
PRAIRIE DU CHI PTSUNNY   79  48  34 W7        29.98F
PLATTEVILLE    PTSUNNY   76  53  44 W9        30.00S
$$

WIZ056-057-062-063-064-067-068-042200-
SOUTH CENTRAL WISCONSIN

CITY           SKY/WX    TMP DP  RH WIND       PRES   REMARKS
REEDSBURG      MOSUNNY   79  51  38 W10       29.98S
BARABOO/DELLS  PTSUNNY   80  47  30 W9G20     29.98S
LONE ROCK      NOT AVBL
MINERAL POINT  PTSUNNY   77  50  38 NW7       30.00F
MADISON        PTSUNNY   78  53  41 NW7       29.97F
MIDDLETON      MOSUNNY   79  47  32 CALM      29.99F
WATERTOWN      MOSUNNY   76  53  44 W8        29.98R
MONROE         MOSUNNY   77  50  38 NW10G16   29.99F
JANESVILLE     MOSUNNY   79  48  34 W10       29.98F
$$

WIZ051-052-058>065-066-070>072-042200-
SOUTHEAST WISCONSIN

CITY           SKY/WX    TMP DP  RH WIND       PRES   REMARKS
MILWAUKEE      PTSUNNY   79  49  34 NW12      29.96S
WAUKESHA       MOSUNNY   77  48  36 NW14G21   29.99R
MILWAUKEE/TIMM MOSUNNY   79  45  29 W12       29.97S
RACINE         MOSUNNY   80  51  36 W8        29.98R HX  80
BURLINGTON     PTSUNNY   78  47  33 NW12      29.98R
KENOSHA        PTSUNNY   77  54  44 W9        29.97S
FOND DU LAC    PTSUNNY   80  53  39 W15       29.95F HX  80
SHEBOYGAN      SUNNY     77  52  41 NW14G20   29.95F
WEST BEND      PTSUNNY   77  50  38 NW8       29.97S
JUNEAU         MOSUNNY   74  52  46 W7        29.98S
$$

LSZ147-162-042200-
LAKE SUPERIOR

STATION/POSITION TIME  TEMP    WIND        PRES    WAVE
                       AIR SEA DIR/SP/G            HT/PER
                 (UTC) (F)     (DEG/KT/KT) (MB)    (FT/S)
W MID LAKE BUOY  1950   58 58  250/  6/  8 1015.5F   0
DEVILS ISLAND    2000   63     260/  3/  5 1015.6S
PORT WING        2000   69      40/  7/ 10 1015.6R
SAXON HARBOR     2040   67      60/  7/  8 1015.2S
$$

LMZ867-665-643>646-042200-
LAKE MICHIGAN

STATION/POSITION TIME  TEMP    WIND        PRES    WAVE
                       AIR SEA DIR/SP/G            HT/PER
                 (UTC) (F)     (DEG/KT/KT) (MB)    (FT/S)
CHAMBERS ISLAND  2000   68      20/  3/  5 1013.5S
N MID LAKE BUOY  1950   63 70  320/  2/  4 1013.9R   0
NORTHPORT PIER   2000   65      90/  4/ 19 1014.2R
SISTER BAY       2018   73     340/  6/  7   N/A
ALGOMA LAKESHORE 2012          320/  8/ 12   N/A
KEWAUNEE LAKESHO 2000   74     320/  8/ 11 1013.4R
SHEBOYGAN LAKESH 2000   74     290/  6/  8 1014.5R
PORT WASHINGTON  2040   79     320/  6/ 18 1014.9S
ATWATER BUOY     2000   66 53  330/ 10/ 12 1015.7F
MILWAUKEE LAKESH 2000   76     300/  8/ 14   N/A
KENOSHA   LAKESH 2000   77     320/ 15/ 18 1013.9F
$$

TC  - TEMPERATURE IN CELSIUS
VSB - VISIBILITY IN STATUTE MILES
WCI - WIND CHILL INDEX
HX  - HEAT INDEX



USA.gov is the U.S. government's official web portal to all federal, state and local government web resources and services.